Clearfield, PA

2:55 PM EDT on July 24, 2017 (GMT -0400)
Clearfield-Lawrence

Weather History for KFIG - July, 2013

Change the Weather History Date:

Wednesday, July 3, 2013

  Actual Average (KDUJ) Record (KDUJ)
Temperature  
Mean Temperature 73 °F -  
Max Temperature 82 °F 77 °F 95 °F (1966)
Min Temperature 64 °F 58 °F 43 °F (2001)
Cooling Degree Days 8    
Growing Degree Days 23 (Base 50)    
Moisture  
Dew Point 66 °F    
Average Humidity 90    
Maximum Humidity 100    
Minimum Humidity 60    
Precipitation  
Precipitation 0.00 in - - ()
Sea Level Pressure  
Sea Level Pressure 30.17 in    
Wind  
Wind Speed 2 mph (NNE)    
Max Wind Speed 8 mph    
Max Gust Speed 18 mph    
Visibility 4 miles    
Events Fog , Thunderstorm    
Averages and records for this station are not official NWS values.
T = Trace of Precipitation, MM = Missing Value Source: NWS Daily Summary

Daily Weather History Graph

Daily Weather History Graph

Search for Another Location

Airport or City:

Trip Planner

Search our weather history database for the weather conditions in past years. The results will help you decide how hot, cold, wet, or windy it might be!

Date:

Astronomy

Jul. 03, 2013 Rise Set
Actual Time 5:46 AM EDT 8:49 PM EDT
Civil Twilight 5:12 AM EDT 9:22 PM EDT
Nautical Twilight 4:30 AM EDT 10:05 PM EDT
Astronomical Twilight 3:40 AM EDT 10:55 PM EDT
Moon 2:24 AM EDT (7/3) 4:57 PM EDT (7/3)
Length of Visible Light 16h 09m
Length of Day
15h 03m
Waning Crescent, 18% of the Moon is Illuminated
Jul 3
Waning Crescent
Jul 8
New
Jul 15
First Quarter
Jul 22
Full
Jul 29
Last Quarter

Hourly Weather History & Observations

Time (EDT) Temp. Heat Index Dew Point Humidity Pressure Visibility Wind Dir Wind Speed Gust Speed Precip Events Conditions
12:02 AM 68.0 °F - 66.2 °F 94% 30.15 in 3.0 mi North 3.5 mph - N/A   Scattered Clouds
12:20 AM 66.2 °F - 66.2 °F 100% 30.15 in 1.5 mi North 4.6 mph - N/A   Partly Cloudy
12:23 AM 66.2 °F - 66.2 °F 100% 30.15 in 0.8 mi North 3.5 mph - N/A   Mist
12:32 AM 68.0 °F - 66.2 °F 94% 30.15 in 1.2 mi Calm Calm - N/A   Partly Cloudy
12:35 AM 68.0 °F - 66.2 °F 94% 30.15 in 4.0 mi Calm Calm - N/A   Partly Cloudy
12:54 AM 68.0 °F - 66.9 °F 96% 30.12 in 8.0 mi Calm Calm - N/A   Clear
1:17 AM 66.2 °F - 64.4 °F 94% 30.14 in 1.0 mi Calm Calm - N/A   Mist
1:22 AM 66.2 °F - 64.4 °F 94% 30.15 in 0.2 mi Calm Calm - N/A Fog Fog
1:36 AM 66.2 °F - 64.4 °F 94% 30.15 in 0.5 mi North 3.5 mph - N/A Fog Fog
1:43 AM 66.2 °F - 64.4 °F 94% 30.15 in 0.2 mi North 3.5 mph - N/A Fog Fog
1:54 AM 66.0 °F - 64.9 °F 96% 30.13 in 0.2 mi Calm Calm - N/A Fog Fog
2:03 AM 66.2 °F - 64.4 °F 94% 30.15 in 1.0 mi Calm Calm - N/A   Mist
2:12 AM 66.2 °F - 64.4 °F 94% 30.15 in 0.2 mi NNE 3.5 mph - N/A Fog Fog
2:24 AM 66.2 °F - 64.4 °F 94% 30.15 in 0.8 mi Calm Calm - N/A   Mist
2:34 AM 66.2 °F - 64.4 °F 94% 30.15 in 1.5 mi Calm Calm - N/A   Scattered Clouds
2:44 AM 66.2 °F - 64.4 °F 94% 30.15 in 0.2 mi Calm Calm - N/A Fog Fog
2:54 AM 66.0 °F - 64.9 °F 96% 30.13 in 0.2 mi Calm Calm - N/A Fog Fog
3:07 AM 64.4 °F - 64.4 °F 100% 30.15 in 0.5 mi NNE 3.5 mph - N/A Fog Fog
3:15 AM 64.4 °F - 64.4 °F 100% 30.15 in 0.2 mi Calm Calm - N/A Fog Fog
3:54 AM 64.9 °F - 64.9 °F 100% 30.13 in 0.2 mi North 4.6 mph - N/A Fog Fog
4:10 AM 66.2 °F - 66.2 °F 100% 30.16 in 0.8 mi Calm Calm - N/A   Overcast
4:17 AM 66.2 °F - 64.4 °F 94% 30.15 in 1.8 mi NE 3.5 mph - N/A   Overcast
4:19 AM 66.2 °F - 64.4 °F 94% 30.15 in 3.0 mi NE 3.5 mph - N/A   Overcast
4:22 AM 66.2 °F - 64.4 °F 94% 30.15 in 1.5 mi NNE 3.5 mph - N/A   Overcast
4:24 AM 66.2 °F - 64.4 °F 94% 30.15 in 0.8 mi NNE 3.5 mph - N/A   Overcast
4:34 AM 64.4 °F - 64.4 °F 100% 30.16 in 0.2 mi Calm Calm - N/A Fog Fog
4:40 AM 66.2 °F - 64.4 °F 94% 30.16 in 1.0 mi ENE 3.5 mph - N/A   Mostly Cloudy
4:44 AM 66.2 °F - 64.4 °F 94% 30.16 in 4.0 mi Calm Calm - N/A   Mostly Cloudy
4:54 AM 66.0 °F - 64.9 °F 96% 30.14 in 6.0 mi Calm Calm - N/A   Mostly Cloudy
5:18 AM 66.2 °F - 64.4 °F 94% 30.17 in 1.5 mi NE 3.5 mph - N/A   Mostly Cloudy
5:22 AM 64.4 °F - 64.4 °F 100% 30.17 in 0.8 mi NNE 3.5 mph - N/A   Mostly Cloudy
5:33 AM 64.4 °F - 64.4 °F 100% 30.17 in 0.2 mi North 3.5 mph - N/A Fog Fog
5:38 AM 64.4 °F - 64.4 °F 100% 30.18 in 0.5 mi NNE 3.5 mph - N/A Fog Fog
5:54 AM 64.9 °F - 64.0 °F 97% 30.16 in 1.2 mi Calm Calm - N/A   Overcast
6:02 AM 64.4 °F - 64.4 °F 100% 30.18 in 0.2 mi NNE 3.5 mph - N/A Fog Fog
6:11 AM 64.4 °F - 64.4 °F 100% 30.19 in 0.8 mi Calm Calm - N/A   Overcast
6:16 AM 66.2 °F - 64.4 °F 94% 30.19 in 2.5 mi Calm Calm - N/A   Overcast
6:23 AM 66.2 °F - 64.4 °F 94% 30.19 in 4.0 mi Calm Calm - N/A   Overcast
6:46 AM 66.2 °F - 64.4 °F 94% 30.20 in 1.8 mi Calm Calm - N/A   Overcast
6:54 AM 66.0 °F - 64.9 °F 96% 30.17 in 1.0 mi North 3.5 mph - N/A   Overcast
6:59 AM 66.2 °F - 64.4 °F 94% 30.20 in 0.2 mi North 4.6 mph - N/A Fog Fog
7:06 AM 66.2 °F - 64.4 °F 94% 30.20 in 0.2 mi North 4.6 mph - N/A Fog Fog
7:24 AM 66.2 °F - 64.4 °F 94% 30.20 in 0.8 mi North 3.5 mph - N/A   Mostly Cloudy
7:28 AM 66.2 °F - 66.2 °F 100% 30.21 in 2.0 mi Calm Calm - N/A   Mostly Cloudy
7:36 AM 66.2 °F - 66.2 °F 100% 30.21 in 6.0 mi Calm Calm - N/A   Scattered Clouds
7:54 AM 68.0 °F - 66.9 °F 96% 30.19 in 7.0 mi Calm Calm - N/A   Mostly Cloudy
8:11 AM 68.0 °F - 66.2 °F 94% 30.23 in 8.0 mi Calm Calm - N/A   Mostly Cloudy
8:54 AM 70.0 °F - 66.0 °F 87% 30.21 in 10.0 mi Calm Calm - N/A   Overcast
9:54 AM 73.0 °F - 66.0 °F 79% 30.20 in 10.0 mi SSW 3.5 mph - N/A   Scattered Clouds
10:54 AM 75.9 °F - 66.0 °F 71% 30.20 in 10.0 mi Variable 4.6 mph - N/A   Clear
11:54 AM 78.1 °F - 66.9 °F 68% 30.21 in 10.0 mi SSW 5.8 mph - N/A   Mostly Cloudy
12:54 PM 79.0 °F - 66.9 °F 66% 30.19 in 10.0 mi South 4.6 mph - N/A   Mostly Cloudy
1:54 PM 80.1 °F 82.7 °F 68.0 °F 67% 30.18 in 10.0 mi Variable 5.8 mph - N/A   Mostly Cloudy
2:54 PM 81.0 °F 83.0 °F 66.0 °F 60% 30.17 in 10.0 mi Variable 4.6 mph - N/A   Overcast
3:54 PM 82.0 °F 84.5 °F 66.9 °F 60% 30.16 in 10.0 mi Calm Calm - N/A   Scattered Clouds
4:54 PM 81.0 °F 83.3 °F 66.9 °F 62% 30.16 in 10.0 mi South 4.6 mph - N/A   Scattered Clouds
5:54 PM 80.1 °F 82.9 °F 69.1 °F 69% 30.16 in 10.0 mi Variable 3.5 mph - N/A   Partly Cloudy
6:32 PM 78.8 °F - 68.0 °F 69% 30.19 in 10.0 mi Variable 4.6 mph - N/A Thunderstorm Clear
6:54 PM 77.0 °F - 68.0 °F 74% 30.17 in 10.0 mi South 8.1 mph 18.4 mph N/A Thunderstorm Clear
7:10 PM 75.2 °F - 68.0 °F 78% 30.20 in 10.0 mi Variable 5.8 mph - N/A   Scattered Clouds
7:54 PM 75.0 °F - 68.0 °F 79% 30.18 in 10.0 mi SSW 3.5 mph - N/A   Partly Cloudy
8:12 PM 75.2 °F - 68.0 °F 78% 30.21 in 10.0 mi SSW 4.6 mph - N/A   Mostly Cloudy
8:49 PM 75.2 °F - 69.8 °F 83% 30.21 in 10.0 mi Calm Calm - N/A   Scattered Clouds
8:54 PM 75.0 °F - 68.0 °F 79% 30.19 in 10.0 mi Calm Calm - N/A   Partly Cloudy
9:54 PM 73.0 °F - 68.0 °F 84% 30.21 in 10.0 mi Calm Calm - N/A   Scattered Clouds
10:54 PM 72.0 °F - 69.1 °F 91% 30.20 in 10.0 mi Calm Calm - N/A   Clear
11:47 PM 71.6 °F - 69.8 °F 94% 30.24 in 2.5 mi North 3.5 mph - N/A   Partly Cloudy
11:54 PM 70.0 °F - 69.1 °F 97% 30.21 in 3.0 mi Calm Calm - N/A   Mostly Cloudy